Time,TemperatureF,DewpointF,PressureIn,WindDirection,WindDirectionDegrees,WindSpeedMPH,WindSpeedGustMPH,Humidity,HourlyPrecipIn,Conditions,Clouds,dailyrainin,SoftwareType,DateUTC
2013-08-15 00:00:00,68.4,64.4,29.97,SSE,157,0.0,0.0,87,0.00,,OVC060,0.00,VWS V14.01,2013-08-15 04:00:00,
2013-08-15 00:01:00,68.4,64.4,29.97,SSE,157,0.0,0.0,87,0.00,,OVC060,0.00,VWS V14.01,2013-08-15 04:01:00,
2013-08-15 00:06:00,68.3,64.0,29.97,SSE,157,0.0,0.0,86,0.00,,OVC060,0.00,VWS V14.01,2013-08-15 04:06:00,
2013-08-15 00:11:00,68.3,64.0,29.97,SSE,157,0.0,0.0,86,0.00,,OVC060,0.00,VWS V14.01,2013-08-15 04:11:00,
2013-08-15 00:16:00,68.1,63.4,29.97,SSE,157,0.0,0.0,85,0.00,,OVC060,0.00,VWS V14.01,2013-08-15 04:16:00,
2013-08-15 00:21:00,68.1,63.4,29.97,SSE,157,0.0,0.0,85,0.00,,OVC060,0.00,VWS V14.01,2013-08-15 04:21:00,
2013-08-15 00:26:00,68.1,63.8,29.97,SSE,157,0.0,0.0,86,0.00,,OVC060,0.00,VWS V14.01,2013-08-15 04:26:00,
2013-08-15 00:31:00,68.1,63.4,29.98,SSE,157,0.0,0.0,85,0.00,,OVC060,0.00,VWS V14.01,2013-08-15 04:31:00,
2013-08-15 00:36:00,67.9,63.2,29.98,SSE,157,0.0,0.0,85,0.00,,OVC060,0.00,VWS V14.01,2013-08-15 04:36:00,
2013-08-15 00:41:00,67.9,63.2,29.98,SSE,157,0.0,0.0,85,0.00,,OVC060,0.00,VWS V14.01,2013-08-15 04:41:00,
2013-08-15 00:46:00,67.8,63.5,29.98,SSE,157,0.0,0.0,86,0.00,,OVC060,0.00,VWS V14.01,2013-08-15 04:46:00,
2013-08-15 00:51:00,67.8,63.5,29.98,SSE,157,0.0,0.0,86,0.00,,OVC060,0.00,VWS V14.01,2013-08-15 04:51:00,
2013-08-15 00:56:00,67.6,63.3,29.98,SSE,157,0.0,0.0,86,0.00,,OVC060,0.00,VWS V14.01,2013-08-15 04:56:00,
2013-08-15 01:01:00,67.6,63.3,29.98,SSE,157,0.0,0.0,86,0.00,,OVC060,0.00,VWS V14.01,2013-08-15 05:01:00,
2013-08-15 01:06:00,67.4,63.4,29.98,SSE,157,0.0,0.0,87,0.00,,OVC060,0.00,VWS V14.01,2013-08-15 05:06:00,
2013-08-15 01:11:00,67.4,63.4,29.98,SSE,157,0.0,0.0,87,0.00,,OVC060,0.00,VWS V14.01,2013-08-15 05:11:00,
2013-08-15 01:16:00,67.3,63.3,29.97,SSE,157,0.0,0.0,87,0.00,,OVC060,0.00,VWS V14.01,2013-08-15 05:16:00,
2013-08-15 01:21:00,67.1,63.4,29.97,SSE,157,0.0,0.0,88,0.00,,OVC060,0.00,VWS V14.01,2013-08-15 05:21:00,
2013-08-15 01:26:00,67.1,63.4,29.97,SSE,157,0.0,0.0,88,0.00,,OVC060,0.00,VWS V14.01,2013-08-15 05:26:00,
2013-08-15 01:31:00,66.9,63.2,29.97,SSE,157,0.0,0.0,88,0.00,,OVC060,0.00,VWS V14.01,2013-08-15 05:31:00,
2013-08-15 01:36:00,66.9,63.6,29.97,SSE,157,0.0,0.0,89,0.00,,OVC060,0.00,VWS V14.01,2013-08-15 05:36:00,
2013-08-15 01:41:00,66.8,63.5,29.97,SSE,157,0.0,0.0,89,0.00,,OVC060,0.00,VWS V14.01,2013-08-15 05:41:00,
2013-08-15 01:46:00,66.8,63.5,29.97,SSE,157,0.0,0.0,89,0.00,,OVC060,0.00,VWS V14.01,2013-08-15 05:46:00,
2013-08-15 01:51:00,66.6,62.9,29.97,SSE,157,0.0,0.0,88,0.00,,OVC060,0.00,VWS V14.01,2013-08-15 05:51:00,
2013-08-15 01:56:00,66.6,62.9,29.97,SSE,157,0.0,0.0,88,0.00,,OVC060,0.00,VWS V14.01,2013-08-15 05:56:00,
2013-08-15 02:01:00,66.4,63.1,29.97,SSE,157,0.0,0.0,89,0.00,,OVC060,0.00,VWS V14.01,2013-08-15 06:01:00,
2013-08-15 02:06:00,66.4,63.1,29.97,SSE,157,0.0,0.0,89,0.00,,OVC060,0.00,VWS V14.01,2013-08-15 06:06:00,
2013-08-15 02:11:00,66.4,63.1,29.97,SSE,157,0.0,0.0,89,0.00,,OVC060,0.00,VWS V14.01,2013-08-15 06:11:00,
2013-08-15 02:16:00,66.4,63.1,29.97,SSE,157,0.0,0.0,89,0.00,,OVC060,0.00,VWS V14.01,2013-08-15 06:16:00,
2013-08-15 02:21:00,66.4,63.1,29.97,SSE,157,0.0,0.0,89,0.00,,OVC060,0.00,VWS V14.01,2013-08-15 06:21:00,
2013-08-15 02:26:00,66.4,63.1,29.97,SSE,157,0.0,0.0,89,0.00,,OVC060,0.00,VWS V14.01,2013-08-15 06:26:00,
2013-08-15 02:31:00,66.4,63.1,29.97,SSE,157,0.0,0.0,89,0.00,,OVC060,0.00,VWS V14.01,2013-08-15 06:31:00,
2013-08-15 02:36:00,66.4,63.1,29.97,SSE,157,0.0,0.0,89,0.00,,OVC060,0.00,VWS V14.01,2013-08-15 06:36:00,
2013-08-15 02:41:00,66.4,63.4,29.97,SSE,157,0.0,0.0,90,0.00,,OVC060,0.00,VWS V14.01,2013-08-15 06:41:00,
2013-08-15 02:46:00,66.3,63.0,29.97,SSE,157,0.0,0.0,89,0.00,,SCT090,0.00,VWS V14.01,2013-08-15 06:46:00,
2013-08-15 02:51:00,66.3,63.3,29.97,SSE,157,0.0,0.0,90,0.00,,SCT090,0.00,VWS V14.01,2013-08-15 06:51:00,
2013-08-15 02:56:00,66.3,63.3,29.97,SSE,157,0.0,0.0,90,0.00,,SCT090,0.00,VWS V14.01,2013-08-15 06:56:00,
2013-08-15 03:01:00,66.3,63.3,29.97,SSE,157,0.0,0.0,90,0.00,,SCT090,0.00,VWS V14.01,2013-08-15 07:01:00,
2013-08-15 03:06:00,66.3,63.3,29.97,SSE,157,0.0,0.0,90,0.00,,SCT090,0.00,VWS V14.01,2013-08-15 07:06:00,
2013-08-15 03:11:00,66.3,63.0,29.97,SSE,157,0.0,0.0,89,0.00,,SCT090,0.00,VWS V14.01,2013-08-15 07:11:00,
2013-08-15 03:16:00,66.3,62.6,29.97,SSE,157,0.0,0.0,88,0.00,,SCT090,0.00,VWS V14.01,2013-08-15 07:16:00,
2013-08-15 03:21:00,66.3,62.6,29.97,North,0,0.0,0.0,88,0.00,,SCT090,0.00,VWS V14.01,2013-08-15 07:21:00,
2013-08-15 03:26:00,66.3,62.6,29.97,North,0,0.0,0.0,88,0.00,,SCT090,0.00,VWS V14.01,2013-08-15 07:26:00,
2013-08-15 03:31:00,66.3,62.6,29.97,North,0,0.0,0.0,88,0.00,,SCT090,0.00,VWS V14.01,2013-08-15 07:31:00,
2013-08-15 03:36:00,66.4,62.7,29.97,North,0,0.0,0.0,88,0.00,,SCT090,0.00,VWS V14.01,2013-08-15 07:36:00,
2013-08-15 03:41:00,66.4,62.7,29.97,North,0,0.0,0.0,88,0.00,,SCT090,0.00,VWS V14.01,2013-08-15 07:41:00,
2013-08-15 03:46:00,66.4,62.7,29.97,North,0,0.0,0.0,88,0.00,,CLR,0.00,VWS V14.01,2013-08-15 07:46:00,
2013-08-15 03:51:00,66.4,62.4,29.97,North,0,0.0,0.0,87,0.00,,CLR,0.00,VWS V14.01,2013-08-15 07:51:00,
2013-08-15 03:56:00,66.4,62.7,29.97,North,0,0.0,0.0,88,0.00,,CLR,0.00,VWS V14.01,2013-08-15 07:56:00,
2013-08-15 04:01:00,66.4,62.7,29.96,North,0,0.0,0.0,88,0.00,,CLR,0.00,VWS V14.01,2013-08-15 08:01:00,
2013-08-15 04:06:00,66.3,62.3,29.96,North,0,0.0,0.0,87,0.00,,CLR,0.00,VWS V14.01,2013-08-15 08:06:00,
2013-08-15 04:11:00,66.3,62.3,29.96,North,0,0.0,0.0,87,0.00,,CLR,0.00,VWS V14.01,2013-08-15 08:11:00,
2013-08-15 04:16:00,66.3,62.3,29.96,North,0,0.0,0.0,87,0.00,,CLR,0.00,VWS V14.01,2013-08-15 08:16:00,
2013-08-15 04:21:00,66.1,62.1,29.96,North,0,0.0,0.0,87,0.00,,CLR,0.00,VWS V14.01,2013-08-15 08:21:00,
2013-08-15 04:26:00,66.0,62.3,29.96,North,0,0.0,0.0,88,0.00,,CLR,0.00,VWS V14.01,2013-08-15 08:26:00,
2013-08-15 04:31:00,65.8,62.2,29.96,North,0,0.0,0.0,88,0.00,,CLR,0.00,VWS V14.01,2013-08-15 08:31:00,
2013-08-15 04:36:00,65.8,62.2,29.96,North,0,0.0,0.0,88,0.00,,CLR,0.00,VWS V14.01,2013-08-15 08:36:00,
2013-08-15 04:41:00,65.8,62.2,29.96,North,0,0.0,0.0,88,0.00,,CLR,0.00,VWS V14.01,2013-08-15 08:41:00,
2013-08-15 04:46:00,65.6,62.3,29.96,North,0,0.0,0.0,89,0.00,,OVC075,0.00,VWS V14.01,2013-08-15 08:46:00,
2013-08-15 04:51:00,65.5,61.9,29.96,North,0,0.0,0.0,88,0.00,,OVC075,0.00,VWS V14.01,2013-08-15 08:51:00,
2013-08-15 04:56:00,65.5,62.2,29.96,North,0,0.0,0.0,89,0.00,,OVC075,0.00,VWS V14.01,2013-08-15 08:56:00,
2013-08-15 05:01:00,65.3,62.0,29.97,North,0,0.0,0.0,89,0.00,,OVC075,0.00,VWS V14.01,2013-08-15 09:01:00,
2013-08-15 05:06:00,65.3,62.3,29.97,North,0,0.0,0.0,90,0.00,,OVC075,0.00,VWS V14.01,2013-08-15 09:06:00,
2013-08-15 05:11:00,65.2,62.2,29.97,North,0,0.0,0.0,90,0.00,,OVC075,0.00,VWS V14.01,2013-08-15 09:11:00,
2013-08-15 05:16:00,65.2,62.5,29.97,North,0,0.0,0.0,91,0.00,,OVC075,0.00,VWS V14.01,2013-08-15 09:16:00,
2013-08-15 05:21:00,65.2,62.5,29.97,North,0,0.0,0.0,91,0.00,,OVC075,0.00,VWS V14.01,2013-08-15 09:21:00,
2013-08-15 05:26:00,65.0,62.3,29.97,North,0,0.0,0.0,91,0.00,,OVC075,0.00,VWS V14.01,2013-08-15 09:26:00,
2013-08-15 05:31:00,65.0,62.3,29.98,North,0,0.0,0.0,91,0.00,,OVC075,0.00,VWS V14.01,2013-08-15 09:31:00,
2013-08-15 05:36:00,65.0,62.3,29.98,North,0,0.0,0.0,91,0.00,,OVC075,0.00,VWS V14.01,2013-08-15 09:36:00,
2013-08-15 05:41:00,64.8,62.4,29.98,North,0,0.0,0.0,92,0.00,,OVC075,0.00,VWS V14.01,2013-08-15 09:41:00,
2013-08-15 05:46:00,64.8,62.4,29.98,North,0,0.0,0.0,92,0.00,,FEW080,0.00,VWS V14.01,2013-08-15 09:46:00,
2013-08-15 05:51:00,64.7,62.3,29.98,North,0,0.0,0.0,92,0.00,,FEW080,0.00,VWS V14.01,2013-08-15 09:51:00,
2013-08-15 05:56:00,64.5,62.1,29.98,North,0,0.0,0.0,92,0.00,,FEW080,0.00,VWS V14.01,2013-08-15 09:56:00,
2013-08-15 06:01:00,64.5,62.1,29.98,North,0,0.0,0.0,92,0.00,,FEW080,0.00,VWS V14.01,2013-08-15 10:01:00,
2013-08-15 06:06:00,64.5,62.4,29.98,North,0,0.0,0.0,93,0.00,,FEW080,0.00,VWS V14.01,2013-08-15 10:06:00,
2013-08-15 06:11:00,64.3,62.2,29.98,North,0,0.0,0.0,93,0.00,,FEW080,0.00,VWS V14.01,2013-08-15 10:11:00,
2013-08-15 06:16:00,64.3,62.2,29.99,North,0,0.0,0.0,93,0.00,,FEW080,0.00,VWS V14.01,2013-08-15 10:16:00,
2013-08-15 06:21:00,64.3,62.5,29.99,North,0,0.0,0.0,94,0.00,,FEW080,0.00,VWS V14.01,2013-08-15 10:21:00,
2013-08-15 06:26:00,64.3,62.5,29.99,North,0,0.0,0.0,94,0.00,,FEW080,0.00,VWS V14.01,2013-08-15 10:26:00,
2013-08-15 06:31:00,64.3,62.5,29.99,North,0,0.0,0.0,94,0.00,,FEW080,0.00,VWS V14.01,2013-08-15 10:31:00,
2013-08-15 06:36:00,64.3,62.5,29.99,North,0,0.0,0.0,94,0.00,,FEW080,0.00,VWS V14.01,2013-08-15 10:36:00,
2013-08-15 06:40:00,64.3,62.5,29.99,North,0,0.0,0.0,94,0.00,,FEW080,0.00,VWS V14.01,2013-08-15 10:40:00,
2013-08-15 06:45:00,64.5,62.7,30.00,North,0,0.0,0.0,94,0.00,,CLR,0.00,VWS V14.01,2013-08-15 10:45:00,
2013-08-15 06:50:00,64.5,62.7,30.00,North,0,0.0,0.0,94,0.00,,CLR,0.00,VWS V14.01,2013-08-15 10:50:00,
2013-08-15 06:55:00,64.5,62.4,30.00,North,0,0.0,0.0,93,0.00,,CLR,0.00,VWS V14.01,2013-08-15 10:55:00,
2013-08-15 07:00:00,64.5,62.4,30.01,North,0,0.0,0.0,93,0.00,,CLR,0.00,VWS V14.01,2013-08-15 11:00:00,
2013-08-15 07:05:00,64.5,62.4,30.01,North,0,0.0,0.0,93,0.00,,CLR,0.00,VWS V14.01,2013-08-15 11:05:00,
2013-08-15 07:10:00,64.5,62.1,30.01,North,0,0.0,0.0,92,0.00,,CLR,0.00,VWS V14.01,2013-08-15 11:10:00,
2013-08-15 07:15:00,64.5,62.1,30.02,North,0,0.0,0.0,92,0.00,,CLR,0.00,VWS V14.01,2013-08-15 11:15:00,
2013-08-15 07:20:00,64.5,61.8,30.02,North,0,0.0,0.0,91,0.00,,CLR,0.00,VWS V14.01,2013-08-15 11:20:00,
2013-08-15 07:25:00,64.5,61.8,30.02,North,0,0.0,0.0,91,0.00,,CLR,0.00,VWS V14.01,2013-08-15 11:25:00,
2013-08-15 07:30:00,64.7,62.0,30.02,North,0,0.0,0.0,91,0.00,,CLR,0.00,VWS V14.01,2013-08-15 11:30:00,
2013-08-15 07:35:00,64.7,62.0,30.02,North,0,0.0,0.0,91,0.00,,CLR,0.00,VWS V14.01,2013-08-15 11:35:00,
2013-08-15 07:40:00,64.7,62.0,30.02,North,0,0.0,0.0,91,0.00,,CLR,0.00,VWS V14.01,2013-08-15 11:40:00,
2013-08-15 07:45:00,64.7,61.7,30.03,North,0,0.0,0.0,90,0.00,,CLR,0.00,VWS V14.01,2013-08-15 11:45:00,
2013-08-15 07:50:00,64.7,61.7,30.03,North,0,0.0,0.0,90,0.00,,CLR,0.00,VWS V14.01,2013-08-15 11:50:00,
2013-08-15 07:55:00,64.7,61.1,30.03,North,0,0.0,0.0,88,0.00,,CLR,0.00,VWS V14.01,2013-08-15 11:55:00,
2013-08-15 08:00:00,64.7,61.4,30.03,North,0,0.0,0.0,89,0.00,,CLR,0.00,VWS V14.01,2013-08-15 12:00:00,
2013-08-15 08:05:00,64.7,60.8,30.03,North,0,0.0,0.0,87,0.00,,CLR,0.00,VWS V14.01,2013-08-15 12:05:00,
2013-08-15 08:10:00,64.8,61.2,30.03,North,0,0.0,0.0,88,0.00,,CLR,0.00,VWS V14.01,2013-08-15 12:10:00,
2013-08-15 08:15:00,64.8,60.8,30.04,North,0,0.0,0.0,87,0.00,,CLR,0.00,VWS V14.01,2013-08-15 12:15:00,
2013-08-15 08:20:00,64.8,60.5,30.04,North,0,0.0,0.0,86,0.00,,CLR,0.00,VWS V14.01,2013-08-15 12:20:00,
2013-08-15 08:25:00,64.8,60.5,30.04,North,0,0.0,0.0,86,0.00,,CLR,0.00,VWS V14.01,2013-08-15 12:25:00,
2013-08-15 08:30:00,64.8,60.2,30.04,North,0,0.0,0.0,85,0.00,,CLR,0.00,VWS V14.01,2013-08-15 12:30:00,
2013-08-15 08:35:00,65.0,60.0,30.04,North,0,0.0,0.0,84,0.00,,CLR,0.00,VWS V14.01,2013-08-15 12:35:00,
2013-08-15 08:40:00,65.0,59.7,30.04,North,0,0.0,0.0,83,0.00,,CLR,0.00,VWS V14.01,2013-08-15 12:40:00,
2013-08-15 08:45:00,65.0,59.4,30.04,North,0,0.0,0.0,82,0.00,,CLR,0.00,VWS V14.01,2013-08-15 12:45:00,
2013-08-15 08:50:00,65.0,59.4,30.04,North,0,0.0,0.0,82,0.00,,CLR,0.00,VWS V14.01,2013-08-15 12:50:00,
2013-08-15 08:55:00,65.0,58.7,30.04,North,0,0.0,0.0,80,0.00,,CLR,0.00,VWS V14.01,2013-08-15 12:55:00,
2013-08-15 09:00:00,65.2,58.5,30.04,North,0,0.0,0.0,79,0.00,,CLR,0.00,VWS V14.01,2013-08-15 13:00:00,
2013-08-15 09:05:00,65.5,59.2,30.04,North,0,0.0,0.0,80,0.00,,CLR,0.00,VWS V14.01,2013-08-15 13:05:00,
2013-08-15 09:10:00,65.6,59.3,30.04,North,0,0.0,0.0,80,0.00,,CLR,0.00,VWS V14.01,2013-08-15 13:10:00,
2013-08-15 09:15:00,65.8,58.0,30.04,North,0,0.0,0.0,76,0.00,,CLR,0.00,VWS V14.01,2013-08-15 13:15:00,
2013-08-15 09:20:00,66.0,59.0,30.04,North,0,0.0,0.0,78,0.00,,CLR,0.00,VWS V14.01,2013-08-15 13:20:00,
2013-08-15 09:25:00,66.1,58.3,30.04,North,0,0.0,0.0,76,0.00,,CLR,0.00,VWS V14.01,2013-08-15 13:25:00,
2013-08-15 09:30:00,66.3,58.5,30.05,North,0,0.0,0.0,76,0.00,,CLR,0.00,VWS V14.01,2013-08-15 13:30:00,
2013-08-15 09:35:00,66.8,59.4,30.05,SE,145,1.0,1.0,77,0.00,,CLR,0.00,VWS V14.01,2013-08-15 13:35:00,
2013-08-15 09:40:00,66.9,58.0,30.05,SSE,156,3.0,7.0,73,0.00,,CLR,0.00,VWS V14.01,2013-08-15 13:40:00,
2013-08-15 09:45:00,66.9,58.0,30.05,ESE,119,1.0,3.0,73,0.00,,SCT070,0.00,VWS V14.01,2013-08-15 13:45:00,
2013-08-15 09:50:00,66.9,58.0,30.05,East,79,0.0,4.0,73,0.00,,SCT070,0.00,VWS V14.01,2013-08-15 13:50:00,
2013-08-15 09:55:00,66.9,58.0,30.05,West,271,0.0,4.0,73,0.00,,SCT070,0.00,VWS V14.01,2013-08-15 13:55:00,
2013-08-15 10:00:00,66.9,57.6,30.05,NNW,328,0.0,3.0,72,0.00,,SCT070,0.00,VWS V14.01,2013-08-15 14:00:00,
2013-08-15 10:05:00,67.1,58.2,30.05,ENE,68,4.0,4.0,73,0.00,,SCT070,0.00,VWS V14.01,2013-08-15 14:05:00,
2013-08-15 10:10:00,67.3,58.4,30.05,SE,136,0.0,5.0,73,0.00,,SCT070,0.00,VWS V14.01,2013-08-15 14:10:00,
2013-08-15 10:15:00,67.4,58.5,30.04,NE,56,0.0,13.0,73,0.00,,SCT070,0.00,VWS V14.01,2013-08-15 14:15:00,
2013-08-15 10:20:00,67.8,58.5,30.04,ENE,77,0.0,4.0,72,0.00,,SCT070,0.00,VWS V14.01,2013-08-15 14:20:00,
2013-08-15 10:25:00,67.9,58.5,30.04,North,355,0.0,6.0,72,0.00,,SCT070,0.00,VWS V14.01,2013-08-15 14:25:00,
2013-08-15 10:30:00,68.1,59.1,30.05,SSE,157,0.0,4.0,73,0.00,,SCT070,0.00,VWS V14.01,2013-08-15 14:30:00,
2013-08-15 10:35:00,68.3,59.3,30.05,SE,137,0.0,7.0,73,0.00,,SCT070,0.00,VWS V14.01,2013-08-15 14:35:00,
2013-08-15 10:40:00,68.3,57.3,30.05,ESE,119,0.0,5.0,68,0.00,,SCT070,0.00,VWS V14.01,2013-08-15 14:40:00,
2013-08-15 10:45:00,68.6,57.6,30.05,ENE,76,3.0,3.0,68,0.00,,BKN065,0.00,VWS V14.01,2013-08-15 14:45:00,
2013-08-15 10:51:00,68.9,57.5,30.05,NW,306,0.0,11.0,67,0.00,,BKN065,0.00,VWS V14.01,2013-08-15 14:51:00,
2013-08-15 10:56:00,68.9,57.5,30.05,East,90,0.0,2.0,67,0.00,,BKN065,0.00,VWS V14.01,2013-08-15 14:56:00,
2013-08-15 11:01:00,69.1,58.1,30.05,South,180,4.0,7.0,68,0.00,,BKN065,0.00,VWS V14.01,2013-08-15 15:01:00,
2013-08-15 11:06:00,69.1,58.5,30.05,SE,142,4.0,4.0,69,0.00,,BKN065,0.00,VWS V14.01,2013-08-15 15:06:00,
2013-08-15 11:11:00,69.1,58.9,30.05,ENE,74,0.0,4.0,70,0.00,,BKN065,0.00,VWS V14.01,2013-08-15 15:11:00,
2013-08-15 11:16:00,68.8,59.8,30.05,ENE,65,0.0,4.0,73,0.00,,BKN065,0.00,VWS V14.01,2013-08-15 15:16:00,
2013-08-15 11:21:00,68.6,58.0,30.05,NE,37,0.0,6.0,69,0.00,,BKN065,0.00,VWS V14.01,2013-08-15 15:21:00,
2013-08-15 11:26:00,68.4,58.6,30.05,ESE,120,0.0,3.0,71,0.00,,BKN065,0.00,VWS V14.01,2013-08-15 15:26:00,
2013-08-15 11:31:00,68.4,57.8,30.05,NNE,28,1.0,3.0,69,0.00,,BKN065,0.00,VWS V14.01,2013-08-15 15:31:00,
2013-08-15 11:36:00,68.3,58.2,30.05,NNW,338,0.0,6.0,70,0.00,,BKN065,0.00,VWS V14.01,2013-08-15 15:36:00,
2013-08-15 11:41:00,68.3,59.7,30.05,SSE,155,0.0,3.0,74,0.00,,BKN065,0.00,VWS V14.01,2013-08-15 15:41:00,
2013-08-15 11:46:00,68.1,58.3,30.05,ENE,69,1.0,3.0,71,0.00,,CLR,0.00,VWS V14.01,2013-08-15 15:46:00,
2013-08-15 11:51:00,68.3,60.5,30.05,SSE,161,0.0,0.0,76,0.00,,CLR,0.00,VWS V14.01,2013-08-15 15:51:00,
2013-08-15 11:56:00,68.3,60.5,30.05,ENE,74,5.0,5.0,76,0.00,,CLR,0.00,VWS V14.01,2013-08-15 15:56:00,
2013-08-15 12:01:00,68.1,58.0,30.05,ESE,117,0.0,4.0,70,0.00,,CLR,0.00,VWS V14.01,2013-08-15 16:01:00,
2013-08-15 12:06:00,68.1,59.9,30.05,East,98,0.0,2.0,75,0.00,,CLR,0.00,VWS V14.01,2013-08-15 16:06:00,
2013-08-15 12:11:00,68.3,58.5,30.05,ESE,112,0.0,5.0,71,0.00,,CLR,0.00,VWS V14.01,2013-08-15 16:11:00,
2013-08-15 12:16:00,68.4,59.4,30.05,NE,39,0.0,6.0,73,0.00,,CLR,0.00,VWS V14.01,2013-08-15 16:16:00,
2013-08-15 12:21:00,68.4,58.6,30.05,East,80,0.0,3.0,71,0.00,,CLR,0.00,VWS V14.01,2013-08-15 16:21:00,
2013-08-15 12:26:00,68.4,59.0,30.05,ESE,105,0.0,0.0,72,0.00,,CLR,0.00,VWS V14.01,2013-08-15 16:26:00,
2013-08-15 12:31:00,68.4,59.4,30.05,ESE,122,0.0,0.0,73,0.00,,CLR,0.00,VWS V14.01,2013-08-15 16:31:00,
2013-08-15 12:36:00,68.4,60.5,30.05,SE,146,0.0,0.0,76,0.00,,CLR,0.00,VWS V14.01,2013-08-15 16:36:00,
2013-08-15 12:41:00,68.4,60.5,30.05,ENE,76,0.0,0.0,76,0.00,,CLR,0.00,VWS V14.01,2013-08-15 16:41:00,
2013-08-15 12:46:00,68.3,59.7,30.05,NNE,24,0.0,0.0,74,0.00,,CLR,0.00,VWS V14.01,2013-08-15 16:46:00,
2013-08-15 12:51:00,68.3,59.7,30.05,ESE,111,0.0,0.0,74,0.00,,CLR,0.00,VWS V14.01,2013-08-15 16:51:00,
2013-08-15 12:56:00,68.3,59.3,30.05,SE,124,0.0,0.0,73,0.00,,CLR,0.00,VWS V14.01,2013-08-15 16:56:00,
2013-08-15 13:01:00,68.1,58.7,30.05,East,84,0.0,1.0,72,0.00,,CLR,0.00,VWS V14.01,2013-08-15 17:01:00,
2013-08-15 13:06:00,68.1,60.3,30.05,WNW,294,0.0,0.0,76,0.00,,CLR,0.00,VWS V14.01,2013-08-15 17:06:00,
2013-08-15 13:11:00,68.1,59.5,30.05,ENE,73,0.0,6.0,74,0.00,,CLR,0.00,VWS V14.01,2013-08-15 17:11:00,
2013-08-15 13:16:00,67.9,59.3,30.05,SSW,207,0.0,0.0,74,0.00,,CLR,0.00,VWS V14.01,2013-08-15 17:16:00,
2013-08-15 13:21:00,67.9,60.8,30.05,NE,44,0.0,2.0,78,0.00,,CLR,0.00,VWS V14.01,2013-08-15 17:21:00,
2013-08-15 13:26:00,67.8,61.1,30.05,ENE,65,0.0,1.0,79,0.00,,CLR,0.00,VWS V14.01,2013-08-15 17:26:00,
2013-08-15 13:31:00,67.6,60.1,30.04,ESE,114,0.0,1.0,77,0.00,,CLR,0.00,VWS V14.01,2013-08-15 17:31:00,
2013-08-15 13:36:00,67.4,59.6,30.04,NNW,327,0.0,1.0,76,0.00,,CLR,0.00,VWS V14.01,2013-08-15 17:36:00,
2013-08-15 13:41:00,67.6,60.5,30.04,WNW,297,0.0,1.0,78,0.00,,CLR,0.00,VWS V14.01,2013-08-15 17:41:00,
2013-08-15 13:46:00,67.6,60.9,30.04,WNW,297,0.0,0.0,79,0.00,,FEW120,0.00,VWS V14.01,2013-08-15 17:46:00,
2013-08-15 13:51:00,67.6,60.9,30.04,WNW,298,0.0,1.0,79,0.00,,FEW120,0.00,VWS V14.01,2013-08-15 17:51:00,
2013-08-15 13:56:00,67.3,60.6,30.04,SW,218,0.0,0.0,79,0.00,,FEW120,0.00,VWS V14.01,2013-08-15 17:56:00,
2013-08-15 14:01:00,67.3,60.9,30.04,NE,49,0.0,1.0,80,0.00,,FEW120,0.00,VWS V14.01,2013-08-15 18:01:00,
2013-08-15 14:06:00,67.1,61.4,30.04,North,5,0.0,1.0,82,0.00,,FEW120,0.00,VWS V14.01,2013-08-15 18:06:00,
2013-08-15 14:11:00,67.1,60.7,30.04,NW,307,0.0,0.0,80,0.00,,FEW120,0.00,VWS V14.01,2013-08-15 18:11:00,
2013-08-15 14:16:00,67.3,60.9,30.03,ENE,63,0.0,1.0,80,0.00,,FEW120,0.00,VWS V14.01,2013-08-15 18:16:00,
2013-08-15 14:21:00,67.4,61.4,30.03,East,88,0.0,2.0,81,0.00,,FEW120,0.00,VWS V14.01,2013-08-15 18:21:00,
2013-08-15 14:26:00,67.8,61.8,30.03,North,5,0.0,3.0,81,0.00,,FEW120,0.00,VWS V14.01,2013-08-15 18:26:00,
2013-08-15 14:31:00,68.1,61.7,30.02,SSE,150,2.0,2.0,80,0.00,,FEW120,0.00,VWS V14.01,2013-08-15 18:31:00,
2013-08-15 14:36:00,68.3,60.5,30.02,SE,141,0.0,0.0,76,0.00,,FEW120,0.00,VWS V14.01,2013-08-15 18:36:00,
2013-08-15 14:41:00,69.1,60.8,30.02,WNW,302,1.0,2.0,75,0.00,,FEW120,0.00,VWS V14.01,2013-08-15 18:41:00,
2013-08-15 14:46:00,70.1,61.0,30.02,West,273,0.0,3.0,73,0.00,,BKN120,0.00,VWS V14.01,2013-08-15 18:46:00,
2013-08-15 14:51:00,70.9,60.6,30.02,WSW,250,0.0,0.0,70,0.00,,BKN120,0.00,VWS V14.01,2013-08-15 18:51:00,
2013-08-15 14:56:00,71.8,61.1,30.02,East,94,0.0,1.0,69,0.00,,BKN120,0.00,VWS V14.01,2013-08-15 18:56:00,
2013-08-15 15:02:00,72.3,60.7,30.02,East,90,3.0,3.0,67,0.00,,BKN120,0.00,VWS V14.01,2013-08-15 19:02:00,
2013-08-15 15:07:00,72.5,60.1,30.02,ENE,60,0.0,1.0,65,0.00,,BKN120,0.00,VWS V14.01,2013-08-15 19:07:00,
2013-08-15 15:12:00,72.3,59.9,30.02,NNW,338,1.0,4.0,65,0.00,,BKN120,0.00,VWS V14.01,2013-08-15 19:12:00,
2013-08-15 15:17:00,72.0,60.0,30.01,WNW,296,0.0,1.0,66,0.00,,BKN120,0.00,VWS V14.01,2013-08-15 19:17:00,
2013-08-15 15:22:00,72.0,60.9,30.01,SW,234,0.0,4.0,68,0.00,,BKN120,0.00,VWS V14.01,2013-08-15 19:22:00,
2013-08-15 15:27:00,72.0,60.5,30.01,NNE,19,0.0,1.0,67,0.00,,BKN120,0.00,VWS V14.01,2013-08-15 19:27:00,
2013-08-15 15:32:00,72.3,61.2,30.00,NW,322,2.0,2.0,68,0.00,,BKN120,0.00,VWS V14.01,2013-08-15 19:32:00,
2013-08-15 15:37:00,72.5,60.1,30.00,East,101,0.0,1.0,65,0.00,,BKN120,0.00,VWS V14.01,2013-08-15 19:37:00,
2013-08-15 15:42:00,72.5,60.9,30.00,SE,131,0.0,0.0,67,0.00,,BKN120,0.00,VWS V14.01,2013-08-15 19:42:00,
2013-08-15 15:47:00,72.5,61.3,30.00,NNE,26,0.0,0.0,68,0.00,,CLR,0.00,VWS V14.01,2013-08-15 19:47:00,
2013-08-15 15:52:00,72.5,60.1,30.00,South,186,1.0,1.0,65,0.00,,CLR,0.00,VWS V14.01,2013-08-15 19:52:00,
2013-08-15 15:58:00,72.8,60.4,30.00,ESE,105,1.0,5.0,65,0.00,,CLR,0.00,VWS V14.01,2013-08-15 19:58:00,
2013-08-15 16:03:00,72.8,59.9,30.00,West,271,0.0,0.0,64,0.00,,CLR,0.00,VWS V14.01,2013-08-15 20:03:00,
2013-08-15 16:08:00,72.8,61.6,30.00,NNW,333,1.0,1.0,68,0.00,,CLR,0.00,VWS V14.01,2013-08-15 20:08:00,
2013-08-15 16:13:00,72.5,59.6,30.00,SSW,204,0.0,0.0,64,0.00,,CLR,0.00,VWS V14.01,2013-08-15 20:13:00,
2013-08-15 16:18:00,72.3,60.7,30.00,WNW,289,0.0,1.0,67,0.00,,CLR,0.00,VWS V14.01,2013-08-15 20:18:00,
2013-08-15 16:23:00,72.1,60.1,30.00,ENE,75,1.0,4.0,66,0.00,,CLR,0.00,VWS V14.01,2013-08-15 20:23:00,
2013-08-15 16:28:00,72.0,59.6,30.00,WNW,295,0.0,4.0,65,0.00,,CLR,0.00,VWS V14.01,2013-08-15 20:28:00,
2013-08-15 16:33:00,72.0,60.9,30.00,NE,43,0.0,2.0,68,0.00,,CLR,0.00,VWS V14.01,2013-08-15 20:33:00,
2013-08-15 16:38:00,72.0,60.9,30.00,East,95,0.0,2.0,68,0.00,,CLR,0.00,VWS V14.01,2013-08-15 20:38:00,
2013-08-15 16:44:00,72.0,60.5,30.00,East,94,0.0,0.0,67,0.00,,CLR,0.00,VWS V14.01,2013-08-15 20:44:00,
2013-08-15 16:49:00,72.1,60.1,30.00,South,178,0.0,1.0,66,0.00,,BKN100,0.00,VWS V14.01,2013-08-15 20:49:00,
2013-08-15 16:54:00,72.1,60.5,30.00,SE,137,0.0,0.0,67,0.00,,BKN100,0.00,VWS V14.01,2013-08-15 20:54:00,
2013-08-15 16:59:00,72.1,60.5,30.00,SSE,161,0.0,0.0,67,0.00,,BKN100,0.00,VWS V14.01,2013-08-15 20:59:00,
2013-08-15 17:04:00,72.0,61.3,30.01,SSW,198,0.0,0.0,69,0.00,,BKN100,0.00,VWS V14.01,2013-08-15 21:04:00,
2013-08-15 17:09:00,71.6,60.5,30.01,SSE,158,0.0,0.0,68,0.00,,BKN100,0.00,VWS V14.01,2013-08-15 21:09:00,
2013-08-15 17:14:00,71.3,61.4,30.01,NNW,331,0.0,0.0,71,0.00,,BKN100,0.00,VWS V14.01,2013-08-15 21:14:00,
2013-08-15 17:19:00,71.1,60.4,30.01,NNW,331,0.0,0.0,69,0.00,,BKN100,0.00,VWS V14.01,2013-08-15 21:19:00,
2013-08-15 17:24:00,70.9,61.4,30.01,NW,315,0.0,1.0,72,0.00,,BKN100,0.00,VWS V14.01,2013-08-15 21:24:00,
2013-08-15 17:29:00,70.8,62.1,30.01,SSE,168,0.0,0.0,74,0.00,,BKN100,0.00,VWS V14.01,2013-08-15 21:29:00,
2013-08-15 17:34:00,70.6,61.9,30.00,WSW,244,0.0,0.0,74,0.00,,BKN100,0.00,VWS V14.01,2013-08-15 21:34:00,
2013-08-15 17:39:00,70.4,61.7,30.00,SE,130,0.0,3.0,74,0.00,,BKN100,0.00,VWS V14.01,2013-08-15 21:39:00,
2013-08-15 17:44:00,70.4,62.1,30.00,SE,140,0.0,0.0,75,0.00,,BKN100,0.00,VWS V14.01,2013-08-15 21:44:00,
2013-08-15 17:49:00,70.3,61.2,30.01,SE,140,0.0,0.0,73,0.00,,OVC100,0.00,VWS V14.01,2013-08-15 21:49:00,
2013-08-15 17:54:00,70.4,62.5,30.01,SSW,192,0.0,0.0,76,0.00,,OVC100,0.00,VWS V14.01,2013-08-15 21:54:00,
2013-08-15 18:00:00,70.4,61.3,30.01,WSW,237,0.0,1.0,73,0.00,,OVC100,0.00,VWS V14.01,2013-08-15 22:00:00,
2013-08-15 18:05:00,70.4,60.2,30.01,NW,313,0.0,1.0,70,0.00,,OVC100,0.00,VWS V14.01,2013-08-15 22:05:00,
2013-08-15 18:10:00,70.4,61.0,30.01,ENE,65,0.0,0.0,72,0.00,,OVC100,0.00,VWS V14.01,2013-08-15 22:10:00,
2013-08-15 18:15:00,70.3,61.2,30.01,North,355,0.0,0.0,73,0.00,,OVC100,0.00,VWS V14.01,2013-08-15 22:15:00,
2013-08-15 18:20:00,70.3,62.0,30.01,ESE,103,0.0,0.0,75,0.00,,OVC100,0.00,VWS V14.01,2013-08-15 22:20:00,
2013-08-15 18:25:00,70.1,61.4,30.01,WNW,286,0.0,0.0,74,0.00,,OVC100,0.00,VWS V14.01,2013-08-15 22:25:00,
2013-08-15 18:30:00,69.8,61.9,30.01,WNW,286,0.0,0.0,76,0.00,,OVC100,0.00,VWS V14.01,2013-08-15 22:30:00,
2013-08-15 18:35:00,69.6,61.7,30.01,ESE,111,0.0,0.0,76,0.00,,OVC100,0.00,VWS V14.01,2013-08-15 22:35:00,
2013-08-15 18:40:00,69.3,62.2,30.01,NW,320,0.0,1.0,78,0.00,,OVC100,0.00,VWS V14.01,2013-08-15 22:40:00,
2013-08-15 18:45:00,68.9,61.8,30.01,NW,320,0.0,0.0,78,0.00,,OVC095,0.00,VWS V14.01,2013-08-15 22:45:00,
2013-08-15 18:50:00,68.6,62.2,30.01,NW,320,0.0,0.0,80,0.00,,OVC095,0.00,VWS V14.01,2013-08-15 22:50:00,
2013-08-15 18:55:00,68.4,62.3,30.01,NW,320,0.0,0.0,81,0.00,,OVC095,0.00,VWS V14.01,2013-08-15 22:55:00,
2013-08-15 19:00:00,68.3,62.2,30.01,NW,320,0.0,0.0,81,0.00,,OVC095,0.00,VWS V14.01,2013-08-15 23:00:00,
2013-08-15 19:05:00,68.3,62.6,30.01,NW,320,0.0,0.0,82,0.00,,OVC095,0.00,VWS V14.01,2013-08-15 23:05:00,
2013-08-15 19:10:00,68.3,62.9,30.01,NW,324,0.0,0.0,83,0.00,,OVC095,0.00,VWS V14.01,2013-08-15 23:10:00,
2013-08-15 19:15:00,68.1,62.1,30.01,NNW,329,0.0,0.0,81,0.00,,OVC095,0.00,VWS V14.01,2013-08-15 23:15:00,
2013-08-15 19:20:00,67.9,62.2,30.01,NNW,329,0.0,0.0,82,0.00,,OVC095,0.00,VWS V14.01,2013-08-15 23:20:00,
2013-08-15 19:25:00,67.9,62.2,30.01,NNW,329,0.0,0.0,82,0.00,,OVC095,0.00,VWS V14.01,2013-08-15 23:25:00,
2013-08-15 19:31:00,67.8,62.1,30.01,NNW,329,0.0,0.0,82,0.00,,OVC095,0.00,VWS V14.01,2013-08-15 23:31:00,
2013-08-15 19:36:00,67.8,61.8,30.01,NNW,329,0.0,0.0,81,0.00,,OVC095,0.00,VWS V14.01,2013-08-15 23:36:00,
2013-08-15 19:41:00,67.8,62.1,30.01,NNW,329,0.0,0.0,82,0.00,,OVC095,0.00,VWS V14.01,2013-08-15 23:41:00,
2013-08-15 19:46:00,67.6,61.6,30.01,NNW,329,0.0,0.0,81,0.00,,,0.00,VWS V14.01,2013-08-15 23:46:00,
2013-08-15 19:51:00,67.6,61.9,30.01,NNW,329,0.0,0.0,82,0.00,,,0.00,VWS V14.01,2013-08-15 23:51:00,
2013-08-15 19:56:00,67.3,61.6,30.01,NNW,329,0.0,0.0,82,0.00,,,0.00,VWS V14.01,2013-08-15 23:56:00,
2013-08-15 20:01:00,67.3,61.6,30.01,NNW,329,0.0,0.0,82,0.00,,,0.00,VWS V14.01,2013-08-16 00:01:00,
2013-08-15 20:06:00,67.1,61.4,30.01,NNW,329,0.0,0.0,82,0.00,,,0.00,VWS V14.01,2013-08-16 00:06:00,
2013-08-15 20:11:00,66.9,61.2,30.01,NNW,329,0.0,0.0,82,0.00,,,0.00,VWS V14.01,2013-08-16 00:11:00,
2013-08-15 20:16:00,66.9,61.6,30.02,NNW,329,0.0,0.0,83,0.00,,OVC095,0.00,VWS V14.01,2013-08-16 00:16:00,
2013-08-15 20:21:00,66.9,61.6,30.02,NNW,329,0.0,0.0,83,0.00,,OVC095,0.00,VWS V14.01,2013-08-16 00:21:00,
2013-08-15 20:26:00,66.8,61.1,30.02,NNW,329,0.0,0.0,82,0.00,,OVC095,0.00,VWS V14.01,2013-08-16 00:26:00,
2013-08-15 20:31:00,66.8,61.5,30.02,NNW,329,0.0,0.0,83,0.00,,OVC095,0.00,VWS V14.01,2013-08-16 00:31:00,
2013-08-15 20:36:00,66.6,61.3,30.02,NNW,329,0.0,0.0,83,0.00,,OVC095,0.00,VWS V14.01,2013-08-16 00:36:00,
2013-08-15 20:41:00,66.4,61.4,30.02,NNW,329,0.0,0.0,84,0.00,,OVC095,0.00,VWS V14.01,2013-08-16 00:41:00,
2013-08-15 20:46:00,66.4,61.4,30.02,NNW,329,0.0,0.0,84,0.00,,OVC095,0.00,VWS V14.01,2013-08-16 00:46:00,
2013-08-15 20:51:00,66.3,61.3,30.02,NNW,329,0.0,0.0,84,0.00,,OVC095,0.00,VWS V14.01,2013-08-16 00:51:00,
2013-08-15 20:56:00,66.3,61.3,30.02,NNW,329,0.0,0.0,84,0.00,,OVC095,0.00,VWS V14.01,2013-08-16 00:56:00,
2013-08-15 21:01:00,66.3,61.3,30.03,NNW,329,0.0,0.0,84,0.00,,OVC095,0.00,VWS V14.01,2013-08-16 01:01:00,
2013-08-15 21:06:00,66.3,61.7,30.03,NNW,329,0.0,0.0,85,0.00,,OVC095,0.00,VWS V14.01,2013-08-16 01:06:00,
2013-08-15 21:11:00,66.3,61.7,30.03,NNW,329,0.0,0.0,85,0.00,,OVC095,0.00,VWS V14.01,2013-08-16 01:11:00,
2013-08-15 21:16:00,66.1,61.5,30.03,NNW,329,0.0,0.0,85,0.00,,OVC095,0.00,VWS V14.01,2013-08-16 01:16:00,
2013-08-15 21:21:00,66.1,61.5,30.03,NNW,329,0.0,0.0,85,0.00,,OVC095,0.00,VWS V14.01,2013-08-16 01:21:00,
2013-08-15 21:26:00,66.1,61.8,30.03,NNW,329,0.0,0.0,86,0.00,,OVC095,0.00,VWS V14.01,2013-08-16 01:26:00,
2013-08-15 21:31:00,66.0,61.7,30.04,NNW,329,0.0,0.0,86,0.00,,OVC095,0.00,VWS V14.01,2013-08-16 01:31:00,
2013-08-15 21:36:00,66.0,61.4,30.04,NNW,329,0.0,0.0,85,0.00,,OVC095,0.00,VWS V14.01,2013-08-16 01:36:00,
2013-08-15 21:41:00,66.0,61.4,30.04,NNW,329,0.0,0.0,85,0.00,,OVC095,0.00,VWS V14.01,2013-08-16 01:41:00,
2013-08-15 21:46:00,66.0,61.4,30.04,NNW,329,0.0,0.0,85,0.00,,OVC100,0.00,VWS V14.01,2013-08-16 01:46:00,
2013-08-15 21:51:00,66.0,61.4,30.04,NNW,329,0.0,0.0,85,0.00,,OVC100,0.00,VWS V14.01,2013-08-16 01:51:00,
2013-08-15 21:56:00,66.1,61.5,30.04,NNW,329,0.0,0.0,85,0.00,,OVC100,0.00,VWS V14.01,2013-08-16 01:56:00,
2013-08-15 22:01:00,66.1,61.5,30.04,NNW,329,0.0,0.0,85,0.00,,OVC100,0.00,VWS V14.01,2013-08-16 02:01:00,
2013-08-15 22:06:00,66.1,62.1,30.04,NNW,329,0.0,0.0,87,0.00,,OVC100,0.00,VWS V14.01,2013-08-16 02:06:00,
2013-08-15 22:11:00,66.0,62.0,30.04,NNW,329,0.0,0.0,87,0.00,,OVC100,0.00,VWS V14.01,2013-08-16 02:11:00,
2013-08-15 22:16:00,66.0,62.0,30.04,NNW,329,0.0,0.0,87,0.00,,OVC100,0.00,VWS V14.01,2013-08-16 02:16:00,
2013-08-15 22:21:00,65.8,61.8,30.04,NNW,329,0.0,0.0,87,0.00,,OVC100,0.00,VWS V14.01,2013-08-16 02:21:00,
2013-08-15 22:26:00,65.8,61.8,30.04,NNW,329,0.0,0.0,87,0.00,,OVC100,0.00,VWS V14.01,2013-08-16 02:26:00,
2013-08-15 22:31:00,65.8,61.5,30.04,NNW,329,0.0,0.0,86,0.00,,OVC100,0.00,VWS V14.01,2013-08-16 02:31:00,
2013-08-15 22:36:00,65.8,61.8,30.04,NNW,329,0.0,0.0,87,0.00,,OVC100,0.00,VWS V14.01,2013-08-16 02:36:00,
2013-08-15 22:41:00,65.8,61.8,30.04,NNW,329,0.0,0.0,87,0.00,,OVC100,0.00,VWS V14.01,2013-08-16 02:41:00,
2013-08-15 22:46:00,65.8,61.8,30.04,NNW,329,0.0,0.0,87,0.00,,OVC100,0.00,VWS V14.01,2013-08-16 02:46:00,
2013-08-15 22:51:00,66.0,61.7,30.04,NNW,329,0.0,0.0,86,0.00,,OVC100,0.00,VWS V14.01,2013-08-16 02:51:00,
2013-08-15 22:56:00,65.8,61.8,30.04,NNW,329,0.0,0.0,87,0.00,,OVC100,0.00,VWS V14.01,2013-08-16 02:56:00,
2013-08-15 23:01:00,65.6,61.6,30.03,NNW,329,0.0,0.0,87,0.00,,OVC100,0.00,VWS V14.01,2013-08-16 03:01:00,
2013-08-15 23:06:00,65.6,61.6,30.03,NNW,329,0.0,0.0,87,0.00,,OVC100,0.00,VWS V14.01,2013-08-16 03:06:00,
2013-08-15 23:11:00,65.6,61.6,30.03,NNW,329,0.0,0.0,87,0.00,,OVC100,0.00,VWS V14.01,2013-08-16 03:11:00,
2013-08-15 23:16:00,65.6,61.3,30.04,NNW,329,0.0,0.0,86,0.00,,OVC100,0.00,VWS V14.01,2013-08-16 03:16:00,
2013-08-15 23:21:00,65.6,61.6,30.04,NNW,329,0.0,0.0,87,0.00,,OVC100,0.00,VWS V14.01,2013-08-16 03:21:00,
2013-08-15 23:26:00,65.6,61.6,30.04,NNW,329,0.0,0.0,87,0.00,,OVC100,0.00,VWS V14.01,2013-08-16 03:26:00,
2013-08-15 23:31:00,65.6,62.0,30.03,NNW,329,0.0,0.0,88,0.00,,OVC100,0.00,VWS V14.01,2013-08-16 03:31:00,
2013-08-15 23:36:00,65.6,61.6,30.03,NNW,329,0.0,0.0,87,0.00,,OVC100,0.00,VWS V14.01,2013-08-16 03:36:00,
2013-08-15 23:41:00,65.6,61.6,30.03,NNW,329,0.0,0.0,87,0.00,,OVC100,0.00,VWS V14.01,2013-08-16 03:41:00,
2013-08-15 23:46:00,65.6,61.3,30.04,NNW,329,0.0,0.0,86,0.00,,OVC090,0.00,VWS V14.01,2013-08-16 03:46:00,
2013-08-15 23:51:00,65.6,61.6,30.04,NNW,329,0.0,0.0,87,0.00,,OVC090,0.00,VWS V14.01,2013-08-16 03:51:00,
2013-08-15 23:56:00,65.8,61.8,30.04,NNW,329,0.0,0.0,87,0.00,,OVC090,0.00,VWS V14.01,2013-08-16 03:56:00,